| time (UTC) | temp C | wind direction | speed KPH | gust KPH | rain 1hr cm | rain 24hr cm | rain mn cm | humidity % | barometer mb |
| 20260504130510 | 15 | 153 | 0.0 | 6.4 | 0.00 | 0.00 | 0.00 | 44 | 1004.2 |
| 20260504110511 | 8 | 211 | 0.0 | 0.0 | 0.00 | 0.00 | 0.00 | 60 | 1004.4 |
| 20260504100511 | 5 | 211 | 0.0 | 0.0 | 0.00 | 0.00 | 0.00 | 67 | 1004.3 |
| 20260504081510 | 5 | 211 | 0.0 | 0.0 | 0.00 | 0.00 | 0.00 | 71 | 1004.1 |
| 20260504081010 | 5 | 211 | 0.0 | 0.0 | 0.00 | 0.00 | 0.00 | 71 | 1004.2 |
| 20260504080510 | 5 | 211 | 0.0 | 0.0 | 0.00 | 0.00 | 0.00 | 72 | 1004.2 |
| 20260504050511 | 3 | 211 | 0.0 | 0.0 | 0.00 | 0.00 | 0.00 | 72 | 1004.2 |
| 20260504050011 | 3 | 211 | 0.0 | 0.0 | 0.00 | 0.00 | 0.00 | 72 | 1004.2 |
| 20260504045510 | 3 | 211 | 0.0 | 0.0 | 0.00 | 0.00 | 0.00 | 72 | 1004.2 |
| 20260504044511 | 3 | 211 | 0.0 | 0.0 | 0.00 | 0.00 | 0.00 | 72 | 1004.2 |
| 20260504044011 | 3 | 211 | 0.0 | 0.0 | 0.00 | 0.00 | 0.00 | 72 | 1004.2 |
| 20260504043511 | 3 | 211 | 0.0 | 0.0 | 0.00 | 0.00 | 0.00 | 72 | 1004.2 |
| 20260504043011 | 3 | 211 | 0.0 | 0.0 | 0.00 | 0.00 | 0.00 | 72 | 1004.2 |
| 20260504042511 | 3 | 211 | 0.0 | 0.0 | 0.00 | 0.00 | 0.00 | 72 | 1004.0 |
| 20260504042011 | 3 | 211 | 0.0 | 0.0 | 0.00 | 0.00 | 0.00 | 72 | 1004.0 |
| 20260504041512 | 3 | 211 | 0.0 | 0.0 | 0.00 | 0.00 | 0.00 | 72 | 1004.0 |
| 20260504041011 | 3 | 211 | 0.0 | 0.0 | 0.00 | 0.00 | 0.00 | 71 | 1003.8 |
| 20260504040511 | 3 | 211 | 0.0 | 0.0 | 0.00 | 0.00 | 0.00 | 71 | 1003.8 |
| 20260504040031 | 3 | 211 | 0.0 | 0.0 | 0.00 | 0.00 | 0.00 | 72 | 1003.8 |
| 20260504035512 | 3 | 211 | 0.0 | 0.0 | 0.00 | 0.00 | 0.00 | 72 | 1003.8 |
| 20260504035011 | 3 | 211 | 0.0 | 0.0 | 0.00 | 0.00 | 0.00 | 72 | 1003.8 |
| 20260504034011 | 3 | 211 | 0.0 | 0.0 | 0.00 | 0.00 | 0.00 | 73 | 1003.7 |
| 20260504033011 | 3 | 211 | 0.0 | 0.0 | 0.00 | 0.00 | 0.00 | 74 | 1003.7 |
| 20260504030511 | 3 | 211 | 0.0 | 0.0 | 0.00 | 0.00 | 0.00 | 73 | 1003.4 |
| 20260504030011 | 3 | 211 | 0.0 | 0.0 | 0.00 | 0.00 | 0.00 | 72 | 1003.4 |
| 20260504025511 | 3 | 211 | 0.0 | 0.0 | 0.00 | 0.00 | 0.00 | 72 | 1003.4 |